{"data":{"norad_id":47672,"intl_designator":"2021-012BE","name":"STARLINK-2065","alt_names":[],"object_type":"PAYLOAD","status":"ACTIVE","operator":null,"country":"US","launch_date":"2021-02-16","launch_site_code":"AFETR","launch_vehicle":null,"mission":null,"orbit_class":"UNKNOWN","rcs_meters":null,"size_class":null,"mass_kg":null,"dimensions":null,"purposes":["comms"],"wikipedia_slug":null,"has_3d_model":false,"image_url":null,"decayed_at":null,"tle_current":{"epoch":"2026-05-25T06:00:02.000160Z","epoch_age_seconds":47330,"freshness":"FRESH","line1":"1 47672U 21012BE  26145.25002315  .00296576  45678-4  74129-3 0  9993","line2":"2 47672  53.1436 345.6417 0007014 251.4053 212.1085 15.95246778  5976","mean_motion":15.95246778,"eccentricity":0.0007014,"inclination_deg":53.1436,"raan_deg":345.6417,"arg_perigee_deg":251.4053,"mean_anomaly_deg":212.1085,"bstar":0.00074129,"rev_number":597,"period_min":90.26816539353,"perigee_km":282.95148609554,"apogee_km":292.30221962834,"semimajor_km":6665.7638528619,"source":"CELESTRAK","updated_at":"2026-05-25T13:38:16.563322Z"}}}